Dewpoint
26 17 18 12 15 21 23 23 24 21 18 19 21 22 22 22 21 22 16 10 20 15 14 15 12 10 10 11 12 13 14 13 11 10 10 10 10 12 13 16 15 14 15 20 17 14 12 8 4 9 9 7 6 5 4 2 4 4 4 9 8 8 8 13 16 18 20 20 22 23 22 21 23 25 25 26 26 26 26 26 25 26 28 30 32 33
22 14 15 19 23 23 26 26 23 17 17 17 14 16 19 17 4 7 10 14 22 14 11 11 11 11 11 11 13 13 13 12 11 10 10 11 13 14 15 17 16 14 18 12 9 9 4 2 6 6 4 9 1 2 1 1 3 4 6 9 9 10 10 11 13 17 19 21 20 20 20 20 22 23 25 25 25 25 26 25 25 25 26 29 32 34
14 11 15 19 24 30 26 27 21 18 16 15 10 13 8 5 10 12 16 19 17 17 13 12 11 11 10 12 12 12 12 12 10 10 11 13 14 13 13 13 9 8 9 7 8 8 1 4 3 0 -1 -3 -0 -0 -0 1 4 5 8 10 12 14 13 14 15 20 20 19 20 20 20 20 22 24 25 25 26 27 26 25 25 26 27 31 34 35
8 13 15 19 30 21 14 24 21 19 16 9 17 12 5 11 11 8 10 15 19 17 14 13 13 14 16 12 12 11 11 15 17 17 17 17 13 12 13 11 8 5 9 6 7 -1 -2 -3 -3 -2 -0 -3 1 2 1 4 7 9 13 11 12 13 13 15 19 27 23 22 24 24 22 21 20 20 26 25 26 26 25 25 25 26 28 32 35 36
10 15 15 29 24 14 10 18 18 15 10 14 18 10 9 10 10 11 10 14 18 19 20 16 12 11 16 12 11 13 15 14 15 15 15 17 17 15 13 10 11 7 8 5 4 0 -1 -4 -3 -2 1 0 2 4 6 9 10 11 12 13 13 14 16 20 24 22 22 22 22 22 21 21 20 20 20 22 23 24 26 27 26 25 25 26 28 32
21 25 25 27 22 18 12 9 13 16 12 12 18 13 10 13 13 12 13 15 11 9 21 15 9 8 13 14 11 12 13 14 15 15 14 11 10 12 10 8 9 10 9 6 4 3 1 -2 -1 -0 -0 0 2 4 9 10 12 12 14 14 15 18 20 21 22 22 22 22 21 20 21 20 20 19 20 19 19 20 22 23 24 24 25 25 25 27
15 24 25 23 15 15 13 7 9 17 13 7 10 16 15 14 14 14 13 14 10 6 12 16 -2 -0 4 11 12 13 13 13 15 13 11 9 9 10 9 6 6 4 3 5 5 3 0 -0 -0 -0 -1 1 4 7 9 10 12 13 15 17 18 19 21 22 22 23 24 22 21 19 19 20 19 19 20 19 19 19 18 22 22 24 24 26 25 25
22 21 23 26 17 13 5 4 8 15 10 8 14 16 17 15 15 14 15 14 11 16 18 15 5 -2 -1 3 14 14 13 13 14 11 9 8 7 7 5 3 2 2 2 4 3 1 0 -0 -1 -1 -0 2 6 8 11 12 13 13 16 19 20 20 22 24 24 24 25 26 24 21 20 22 21 20 19 19 19 19 21 20 20 22 24 25 27 27
17 15 21 19 17 11 2 7 12 18 9 11 16 20 18 19 18 17 14 10 10 13 12 4 10 -2 -1 -0 14 14 12 13 15 12 9 8 6 4 2 1 1 2 4 2 1 -0 -1 -1 -2 -0 1 4 7 10 11 12 12 15 20 21 22 21 23 24 25 26 27 28 24 21 21 21 21 22 23 23 23 22 22 20 19 18 20 23 24 27
23 13 19 22 14 6 12 12 11 16 8 18 20 21 19 18 16 14 9 8 7 3 2 3 5 -1 0 2 14 15 14 14 12 10 9 7 2 -0 2 1 2 2 3 3 1 -1 -1 -2 -2 0 2 4 7 11 15 13 14 20 22 22 22 22 23 24 25 26 28 26 23 21 21 21 21 22 22 22 22 22 23 22 21 20 19 20 22 25
20 32 27 20 14 15 15 12 12 10 16 19 16 9 10 12 10 6 5 2 5 -2 7 6 4 3 -0 5 13 15 17 14 13 12 10 -0 -1 -0 1 1 3 3 3 1 -1 -1 -2 -2 -0 2 1 2 5 8 11 14 19 22 23 22 22 22 23 23 24 24 24 22 21 21 20 21 22 22 22 22 22 23 23 23 23 23 22 22 22 24
25 23 24 23 30 27 12 10 16 17 18 12 7 8 7 6 8 2 7 5 -5 -2 2 2 2 1 -2 2 14 16 15 11 10 7 4 -3 -2 1 2 3 3 3 3 1 -0 -2 -2 -1 1 1 1 3 4 7 10 17 23 22 22 22 21 21 22 22 23 23 22 21 20 20 20 20 20 22 22 22 22 22 23 23 24 24 24 23 23 24
14 13 17 24 28 22 15 8 10 15 13 8 7 6 1 -2 -0 -7 -1 -3 -5 -4 2 2 2 -3 -2 3 14 16 15 13 12 13 3 -1 -1 0 2 2 4 2 -0 -1 -3 -2 -0 1 1 1 2 4 6 8 13 21 20 21 21 21 21 21 20 19 20 21 21 20 19 19 18 17 18 19 20 22 22 22 22 23 24 24 24 24 24 25
8 19 19 21 20 20 10 1 1 3 9 6 5 6 2 -3 -6 -8 -3 -4 -0 1 2 2 2 -3 -1 5 17 16 16 14 10 2 2 -1 -1 1 2 2 1 0 -3 -3 -2 -1 1 1 0 1 4 6 8 9 16 18 20 20 21 21 21 20 19 19 20 21 20 20 18 16 15 15 15 16 17 18 21 22 23 24 25 26 26 27 27 26
3 5 11 15 12 18 14 3 6 6 11 3 14 5 0 -2 -3 -4 -5 -5 -1 2 4 1 -4 -4 2 3 16 15 15 12 0 -1 -2 2 2 2 1 0 -2 -2 -4 -3 -1 -0 -1 -1 -2 1 6 7 7 12 17 17 18 18 19 20 20 18 18 19 21 21 20 17 15 13 13 13 14 15 17 18 19 21 23 23 24 26 28 29 28 28
12 5 11 18 18 16 12 18 18 14 11 8 12 15 8 3 8 -1 0 -1 1 3 -1 -3 -1 1 1 8 18 13 2 2 0 -3 2 0 1 2 -0 -1 -2 -3 -3 -1 -1 -2 -3 -3 -1 4 6 7 8 12 16 16 16 17 18 19 18 18 18 20 22 20 18 14 13 12 12 12 14 14 15 18 19 20 20 19 21 23 25 26 26 26
12 6 16 19 22 14 11 17 12 13 2 8 8 2 4 11 8 2 6 8 4 -1 -1 -0 1 2 -0 1 15 7 -1 -2 -0 -2 -0 -1 -2 -2 -3 -3 -4 -3 -2 -1 -1 -3 -3 -2 1 4 5 6 7 10 12 14 15 16 17 16 15 17 18 20 21 19 15 13 11 11 10 10 10 10 10 10 13 13 13 12 12 14 19 22 24 26
6 12 18 18 16 16 17 18 19 19 19 8 4 5 16 16 14 5 -3 -2 -4 -5 -4 -1 -1 1 -0 -2 5 1 -1 -3 -3 -1 -3 -5 -4 -6 -6 -5 -4 -3 -2 -3 -3 -3 -2 0 3 3 5 6 6 8 10 13 14 16 16 14 13 15 17 19 19 17 13 12 11 11 11 9 9 9 9 10 12 10 10 9 8 8 12 17 22 24
16 11 14 19 15 19 22 18 14 18 20 8 6 15 11 2 2 5 0 -2 -3 -5 -3 -1 -0 1 2 4 1 -1 -3 -5 -3 -3 -5 -6 -7 -7 -7 -6 -5 -3 -3 -3 -3 -2 0 1 3 3 4 6 9 13 14 16 16 16 14 13 14 15 18 19 19 15 14 12 12 13 11 9 9 9 10 12 12 10 9 8 7 6 8 11 17 21
19 11 14 18 15 17 11 12 5 10 16 19 21 14 16 10 4 2 1 4 3 0 -3 -3 1 -1 2 5 1 -3 -5 -3 -3 -6 -7 -6 -7 -7 -7 -5 -4 -4 -3 -3 -3 -1 1 2 3 7 11 13 14 14 13 11 12 12 13 15 15 16 17 19 18 15 14 12 12 12 10 9 9 10 11 11 10 8 6 5 5 7 8 10 15 19
17 16 10 14 18 15 5 8 4 2 3 7 8 8 11 7 13 10 9 4 2 -1 -1 -2 -3 -0 3 -1 -2 -2 -4 -3 -5 -6 -6 -6 -7 -7 -7 -6 -5 -4 -4 -4 -2 -0 3 5 6 6 6 8 7 7 7 7 9 13 14 14 15 16 19 20 19 18 15 14 12 11 9 9 9 9 11 9 6 5 5 5 9 9 10 11 13 17
11 15 8 10 14 10 10 11 13 7 8 8 10 8 12 6 8 5 5 7 1 -2 -1 -2 -2 2 4 -0 -4 -4 -3 -4 -5 -5 -6 -6 -7 -6 -7 -6 -5 -4 -4 -4 -2 2 4 4 4 5 5 5 4 5 6 8 9 10 11 14 17 19 20 20 20 18 16 12 11 8 8 8 9 9 6 3 3 4 4 6 7 10 13 13 14 16
18 19 17 14 14 12 12 10 18 18 19 15 11 10 12 14 11 7 4 5 8 5 1 4 1 0 4 -0 -3 -3 -2 -4 -4 -6 -6 -7 -7 -7 -6 -5 -4 -4 -5 -3 0 3 2 3 3 4 4 3 3 5 6 7 7 8 10 15 16 15 15 17 16 14 12 10 8 7 8 8 5 3 0 -1 -0 1 4 6 7 10 12 14 17 17
28 11 9 8 10 15 6 18 16 17 19 11 10 13 14 10 12 10 9 9 8 7 3 1 -1 -0 1 2 -2 -2 -1 -3 -5 -6 -6 -6 -6 -6 -5 -6 -5 -5 -4 -2 2 1 2 3 3 2 1 3 3 4 5 6 7 8 13 13 10 9 8 8 8 8 8 7 7 7 5 3 1 -2 -3 -3 -2 0 2 5 8 11 14 18 18 19
5 12 10 6 4 3 3 1 2 15 12 2 4 9 14 13 13 12 11 9 6 5 4 1 -3 -1 3 1 -2 -1 -3 -5 -5 -6 -5 -6 -5 -6 -6 -6 -4 -3 -2 -1 0 -0 1 2 2 2 3 4 4 4 6 6 7 9 10 7 6 5 5 5 5 6 6 7 6 5 2 -0 -2 -4 -4 -4 -2 -1 0 3 7 11 16 16 15 15
18 17 6 -2 -2 -1 -2 -1 -2 -0 5 5 6 10 14 10 10 9 4 5 3 4 3 1 0 1 1 1 -1 -2 -4 -5 -5 -6 -4 -5 -5 -5 -5 -3 -3 -2 -1 -2 -2 -0 2 3 3 2 3 4 4 5 5 6 9 9 7 6 4 3 3 3 3 5 7 5 2 2 -1 -3 -5 -5 -5 -4 -1 1 4 8 12 15 13 12 11 13
15 18 3 2 -0 -0 3 3 3 9 8 8 8 7 6 10 10 8 7 6 3 3 1 2 2 1 1 0 0 -2 -3 -5 -6 -6 -6 -6 -5 -4 -4 -3 -2 -2 -3 -2 -0 1 2 2 2 3 4 4 4 3 6 5 6 5 5 4 3 2 2 4 3 -1 -4 -4 -3 -1 -4 -5 -4 -3 -2 2 5 5 5 3 3 6 7 9 10 12
6 6 11 3 1 0 -2 0 7 11 8 6 5 4 5 7 7 5 4 5 6 1 -2 2 1 0 1 1 -1 -3 -4 -5 -6 -6 -6 -5 -4 -3 -4 -2 5 -3 -3 -1 0 1 2 2 1 4 5 4 3 3 2 4 6 4 2 -0 -2 -1 0 -2 -5 -6 -5 -4 -2 -3 -5 -8 -7 1 4 0 -2 -2 -1 1 3 6 8 10 12 16
4 4 7 2 4 6 7 9 10 7 5 2 1 3 3 11 10 3 5 5 -0 -1 -2 1 1 1 1 -1 -2 -3 -4 -5 -6 -6 -5 -4 -3 -3 -2 -2 -3 -4 -2 -1 1 1 2 2 3 5 5 4 4 3 1 3 3 3 0 -3 -3 -1 -3 -4 -5 -6 -5 -5 -8 -9 -9 -9 -7 -4 -2 -3 -4 -2 -0 4 6 7 9 14 16 15
8 8 6 4 6 7 8 7 6 5 2 3 5 -0 8 0 -0 1 -0 -1 -1 -0 0 0 1 0 -0 -1 -2 -3 -3 -4 -5 -4 -3 -3 -3 -2 -3 -2 -3 -3 -1 0 0 1 2 3 4 4 5 3 1 -0 1 1 1 -1 -2 -5 -3 -0 -4 -5 -6 -5 -9 -11 -12 -10 -8 -7 -6 -6 -5 -3 -2 1 5 6 7 11 13 12 11 12
11 3 8 6 6 6 4 7 5 3 4 0 -2 0 -2 -2 -2 -3 -0 1 3 1 1 1 1 1 0 -1 -1 -2 -3 -4 -4 -4 -4 -3 -3 -3 -2 -2 -2 -0 -0 0 1 2 3 4 5 5 4 2 1 -0 -2 -3 -1 -2 -3 -6 -3 -3 -7 -6 -6 -10 -11 -11 -10 -8 -7 -6 -6 -4 -4 -1 3 5 3 3 3 4 5 7 10 10
6 5 6 4 2 1 0 -0 2 3 0 0 2 2 -1 -3 -3 -3 -3 -1 0 1 2 1 -1 -1 1 -1 -1 -2 -4 -4 -4 -3 -3 -4 -4 -2 -2 -2 -0 0 0 1 2 4 4 4 6 5 4 2 1 0 -1 -3 -0 -3 -7 -5 -3 -6 -7 -6 -8 -9 -9 -9 -9 -7 -6 -7 -6 -3 -1 1 1 1 2 3 5 5 5 7 8 10
8 5 5 2 2 -0 -1 1 2 1 1 -1 0 1 -4 -4 -3 -2 -1 -0 -1 -1 1 -2 -1 0 -1 0 -2 -3 -4 -3 -3 -3 -4 -4 -3 -2 -2 -1 0 1 1 2 3 4 4 4 6 6 4 2 0 -0 -1 -0 -3 -5 -5 -7 -6 -6 -7 -8 -8 -10 -9 -8 -8 -8 -8 -7 -6 -5 -4 -1 0 1 3 4 4 5 6 7 8 11
5 4 3 6 -2 2 1 1 2 -0 -3 -2 1 3 -4 -4 -3 -2 -2 -1 -1 -1 2 0 -0 0 -0 -1 -2 -3 -4 -3 -3 -3 -3 -3 -2 -1 -1 0 1 2 4 4 4 5 4 6 7 6 4 1 -0 -1 -1 -3 -4 -3 -7 -7 -8 -9 -8 -8 -9 -9 -9 -8 -8 -8 -7 -5 -6 -4 -3 -1 0 1 2 3 3 3 5 7 9 10
3 2 1 2 2 -0 2 1 -0 -4 -3 4 1 4 -2 -2 -1 -1 -1 -0 0 0 -0 1 1 0 -0 -2 -2 -3 -3 -3 -3 -3 -3 -2 -1 -1 0 1 2 4 5 5 6 5 5 7 7 5 3 1 1 -1 -3 -3 -3 -7 -6 -7 -9 -9 -9 -9 -9 -8 -8 -8 -8 -7 -5 -5 -5 -4 -2 0 0 0 1 1 2 4 6 8 8 10
1 1 1 1 -1 1 -1 -2 -5 -4 -1 7 1 -1 7 0 0 -0 0 1 1 -1 -0 1 0 -0 -1 -2 -2 -2 -2 -2 -2 -1 -1 -1 -0 0 1 1 2 4 5 5 6 6 7 9 6 4 2 3 1 -1 -2 -3 -5 -3 -5 -8 -8 -8 -8 -8 -8 -8 -7 -6 -6 -5 -6 -5 -4 -2 -0 0 0 1 1 2 4 5 6 7 8 10
3 3 2 2 -0 -6 -1 1 1 0 -0 5 5 2 -0 -2 -2 -1 -1 1 -0 -1 1 0 -0 -1 -2 -2 -2 -2 -1 -2 -1 -1 -1 -1 -0 -0 1 3 6 7 6 6 5 7 9 8 5 3 2 1 0 -2 -6 -4 -3 -4 -7 -5 -7 -7 -7 -7 -8 -7 -6 -5 -5 -4 -4 -2 -0 1 1 0 1 1 1 3 4 4 6 7 8 9
7 5 4 3 1 -0 3 -1 -1 -1 -2 1 3 3 3 -1 -1 -0 1 2 -1 1 2 -0 -1 -2 -2 -2 -1 -1 -1 1 -1 -0 0 0 0 1 3 4 3 5 6 6 7 8 9 6 4 3 2 1 -0 -2 -2 -3 -3 -5 -5 -5 -6 -6 -7 -7 -7 -6 -5 -4 -4 -3 -2 0 1 2 1 1 1 2 2 3 4 5 7 7 8 9
12 6 5 3 4 3 -2 -2 -1 -3 -0 2 5 7 4 3 2 3 2 -1 1 3 1 -0 -2 -2 -1 -1 -1 0 1 -1 -1 2 1 0 2 4 3 4 6 6 6 7 9 8 7 5 3 3 2 1 -3 -3 -3 -3 -4 -4 -4 -5 -5 -5 -5 -5 -6 -5 -3 -3 -2 -1 1 1 1 1 1 1 2 3 3 4 5 6 7 7 9 10
9 7 4 4 -2 1 0 -1 -4 -5 -3 4 7 2 2 4 3 3 -6 -7 2 1 -0 -1 -1 -1 -1 -1 1 1 2 -1 0 2 3 2 4 3 4 5 5 6 7 9 9 8 6 4 3 1 2 1 -0 -2 -4 -5 -3 -4 -5 -4 -4 -4 -4 -5 -4 -3 -3 -1 -0 0 0 1 2 2 2 3 3 3 4 5 5 6 7 8 9 11
1 2 1 1 0 3 5 1 1 -0 5 7 4 2 4 3 2 -2 -6 0 1 0 -0 -0 -0 -0 0 1 1 1 2 2 2 3 4 6 5 4 5 5 6 7 8 9 8 10 5 3 2 1 1 1 -1 -2 -5 -4 -4 -4 -4 -4 -4 -3 -3 -2 -2 -3 -1 -1 0 -1 -1 2 2 3 3 4 3 4 4 5 5 6 7 9 11 14
2 -0 4 0 0 -1 1 -1 -0 2 6 4 2 2 3 2 -3 -3 1 1 0 -1 -0 1 1 1 1 1 1 1 1 2 4 5 6 7 8 6 7 7 8 8 9 9 8 6 4 1 -0 -0 1 0 -2 -4 -4 -4 -5 -4 -3 -3 -4 -4 -2 -1 -1 -1 -0 -2 -2 -1 2 2 3 3 3 4 4 4 4 6 7 8 9 11 13 14
6 1 1 -1 3 2 -0 -0 -4 -6 3 1 -0 2 3 1 2 4 0 -0 1 0 0 1 1 2 2 1 2 2 2 4 5 7 8 11 6 8 8 8 8 8 6 2 2 4 2 -1 -0 -0 2 0 -2 -3 -4 -4 -4 -3 -2 -4 -4 -1 -0 0 -1 -1 -2 -0 0 1 2 2 2 3 3 3 4 5 5 6 7 8 10 11 13 13
6 1 -1 -0 2 -1 -1 -4 -5 1 -1 1 0 1 1 0 0 0 0 -1 1 1 1 2 2 3 2 2 3 4 5 6 7 7 6 9 9 9 8 8 8 5 1 2 4 1 -0 -1 -0 -0 1 -1 -4 -5 -4 -4 -3 -2 -3 -4 -2 1 0 -0 -2 -1 -0 1 0 1 1 2 2 3 3 4 4 5 5 5 6 7 8 10 11 12
10 3 4 3 2 1 -1 1 2 1 1 2 2 2 2 1 1 1 1 1 1 2 3 3 2 2 3 4 4 5 5 7 7 8 8 8 8 7 7 7 5 0 2 5 -1 -3 -2 0 -2 1 0 -3 -7 -6 -4 -3 -3 -3 -3 -2 0 -0 -0 -0 0 0 -0 0 0 1 1 2 2 2 3 4 4 4 4 4 5 5 7 8 9 10
7 7 4 -0 4 4 4 4 5 1 2 3 3 4 1 1 2 2 3 2 3 4 3 3 3 3 4 5 4 4 5 7 8 8 8 7 6 6 6 3 1 3 3 -3 -6 -3 -1 -1 -0 2 -2 -6 -5 -6 -3 -4 -3 -3 -2 -1 -1 0 -0 0 0 -0 -0 -0 -0 0 1 0 1 1 3 3 4 4 4 4 4 5 5 7 8 10
4 1 0 -0 0 1 -0 0 1 2 3 4 3 3 2 3 4 4 4 4 4 4 4 4 4 5 4 4 3 3 4 6 7 7 6 6 5 2 0 0 3 1 -5 -6 -3 -2 0 -1 1 -1 -4 -4 -6 -4 -4 -4 -2 -1 -1 -1 -1 -0 0 0 -0 -1 -1 -1 -1 -1 -0 -0 -0 1 2 2 3 3 4 4 4 5 6 7 8 10
10 5 1 1 1 -0 -1 2 3 4 4 5 4 3 3 4 5 5 5 5 5 5 5 5 5 3 3 1 1 2 3 4 5 4 3 4 5 1 0 3 -1 -4 -5 -5 -4 -1 -0 -2 -3 -4 -6 -6 -5 -4 -3 -3 -2 -2 -1 -0 -0 0 0 -1 -1 -1 -2 -1 -1 -1 -1 -1 2 2 1 2 3 3 3 4 4 5 6 8 8 9
11 6 5 3 1 2 4 4 4 5 5 5 5 5 5 6 6 5 5 5 6 5 5 4 4 3 2 1 2 2 2 1 -0 -0 1 1 1 0 2 -2 -3 -5 -6 -5 -3 -1 -6 -5 -5 -6 -6 -5 -5 -4 -4 -3 -3 -2 -1 -1 -0 0 -1 -1 -1 -1 -2 -2 -2 -2 -0 0 1 1 1 2 2 3 4 4 5 7 8 10 11 12
7 7 3 5 5 5 4 3 4 4 4 5 5 6 6 6 6 6 6 6 5 4 4 3 3 3 2 2 0 -2 -1 -1 -2 -4 -1 -0 1 1 -3 -4 -5 -6 -5 -4 -3 -7 -7 -6 -5 -6 -5 -5 -5 -5 -4 -3 -3 -2 -1 -1 -0 -0 -1 -1 -2 -2 -3 -3 -3 -2 -1 0 0 0 1 2 2 3 4 7 12 11 10 11 16 19
3 4 4 5 5 5 5 5 6 6 6 6 6 7 7 6 7 7 6 5 4 4 3 3 3 2 1 -0 -2 -2 -4 -3 -4 -3 -2 1 -0 -4 -5 -5 -6 -6 -5 -6 -7 -8 -8 -7 -6 -5 -5 -5 -5 -5 -4 -3 -3 -2 -1 -1 -0 -1 -1 -2 -2 -3 -3 -3 -3 -1 0 0 0 1 2 2 3 3 3 4 6 11 14 15 17 19